Wind_Speed
7 8 9 9 10 11 12 12 13 13 13 13 13 12 12 13 14 18 18 17 18 16 16 16 16 16 15 14 13 13 12 12 12
7 8 10 10 11 11 12 12 13 13 14 14 15 15 14 14 14 17 20 22 21 21 17 20 19 18 17 17 16 15 15 14 13
7 7 8 9 10 11 12 12 12 12 13 15 15 16 17 17 16 18 19 22 24 24 22 25 23 21 20 20 19 17 17 16 15
5 8 7 7 8 11 11 11 12 12 13 14 15 15 16 17 18 20 21 21 22 21 25 24 26 23 22 22 21 19 18 19 17
6 7 6 6 8 9 10 11 12 13 14 15 15 16 16 17 18 18 21 22 22 20 21 27 28 27 25 25 24 22 21 20 19
6 7 9 9 10 10 10 12 14 16 16 16 16 17 17 18 18 18 16 17 20 21 20 25 29 32 29 28 28 26 24 23 22
8 9 10 10 10 10 11 14 15 16 17 18 18 18 18 18 18 17 15 14 15 18 19 24 27 28 35 33 30 27 27 25 23
10 11 11 11 12 12 14 15 15 16 18 19 18 18 18 18 17 15 13 13 15 15 16 16 18 25 32 37 30 27 27 27 25
11 12 13 13 13 13 15 16 16 16 17 18 18 18 17 16 15 14 11 11 12 11 9 7 5 8 10 18 7 20 25 22 20
11 12 13 13 12 13 15 16 16 17 18 18 18 18 16 13 12 12 10 8 8 7 5 6 4 11 11 20 21 26 23 25 20
12 13 14 13 13 14 15 16 17 18 19 19 17 16 13 11 10 8 7 7 5 5 3 3 4 4 0 6 18 18 14 13 10
12 13 14 14 13 14 15 16 16 18 19 18 17 14 12 10 10 7 6 5 3 1 1 4 5 5 2 6 7 10 12 7 4
11 13 13 14 14 15 16 16 18 19 19 22 18 13 11 7 6 6 6 4 3 3 3 3 2 0 3 2 4 4 5 5 5
10 12 12 13 13 14 16 16 17 20 22 24 15 10 7 5 4 5 4 3 3 3 2 2 3 4 5 3 3 2 3 2 3
10 10 11 12 12 13 14 15 16 16 22 19 10 9 9 9 7 7 8 10 10 10 8 6 6 8 10 10 11 7 6 5 4
8 8 10 11 11 11 12 14 16 17 22 13 9 6 8 10 9 8 10 10 10 9 10 10 8 6 7 8 9 6 8 5 5
7 8 9 10 9 9 9 11 12 9 15 8 4 3 4 7 10 7 9 12 9 8 8 7 4 4 4 5 3 5 6 6 7
6 7 8 8 8 8 8 8 9 9 8 9 4 3 2 5 4 7 8 8 9 9 7 5 5 2 3 4 4 5 5 7 6
8 8 7 7 7 7 6 6 6 6 7 5 8 2 2 2 4 4 6 15 11 13 11 6 2 0 1 2 3 4 6 7 6
6 6 6 6 7 6 5 4 4 4 3 3 3 3 3 1 1 3 7 17 15 17 12 6 2 1 3 4 5 5 5 7 8
Wind_Direction
354 350 346 342 336 328 324 320 317 315 309 309 316 310 302 291 272 270 267 264 258 255 245 242 235 220 220 208 202 199 194 191 187
355 354 352 351 352 350 344 338 330 325 319 317 313 308 297 294 288 274 272 268 262 254 250 241 238 233 227 220 213 208 206 201 197
342 346 345 349 350 352 346 345 340 340 336 331 324 302 298 293 287 284 278 274 269 260 250 244 235 236 230 226 219 215 209 210 206
336 328 332 336 342 345 344 343 345 339 333 327 319 313 307 301 294 283 281 279 281 272 257 251 237 234 233 225 222 218 216 214 210
338 343 348 341 334 341 347 341 339 330 322 319 313 311 308 302 300 302 283 285 286 286 274 255 249 237 231 226 222 221 217 214 218
346 337 329 328 328 329 329 328 324 321 318 315 311 305 302 301 301 301 299 293 292 287 280 268 259 245 230 227 224 220 219 217 219
345 337 331 330 329 327 328 328 324 322 320 317 314 309 303 298 300 297 295 299 303 298 287 281 271 259 232 223 224 222 218 217 218
344 340 337 336 334 335 335 333 332 332 330 325 317 310 303 298 291 299 294 293 307 308 297 291 259 266 253 224 215 225 229 228 224
349 347 345 340 338 339 341 340 338 335 334 326 320 314 305 304 301 295 300 292 305 319 335 300 16 15 349 332 27 246 236 231 228
346 346 346 342 340 340 342 342 340 337 333 327 324 316 309 308 312 296 307 298 287 313 348 30 10 347 345 339 296 299 242 234 230
337 339 344 344 341 340 341 341 337 337 333 329 328 317 313 312 314 319 315 314 276 274 312 27 51 127 327 213 272 288 339 197 174
329 335 338 341 339 337 338 337 336 336 335 331 328 317 313 309 319 333 344 350 288 262 58 71 44 49 222 170 216 265 273 291 269
317 329 333 338 337 336 339 342 341 344 342 335 330 322 318 308 316 330 341 3 51 84 57 24 64 281 219 141 155 233 263 291 287
303 322 328 332 333 336 341 346 346 346 347 340 335 350 1 3 358 339 344 27 25 45 38 12 49 56 67 94 141 194 197 171 192
298 314 324 326 331 336 341 347 350 352 350 342 350 43 45 42 39 65 70 67 68 68 62 62 82 79 88 94 90 96 86 82 82
294 307 322 324 329 338 344 349 355 8 0 359 356 36 50 56 53 57 63 67 63 64 66 63 65 59 70 72 68 68 61 51 54
289 296 312 321 325 332 347 355 0 4 11 4 315 354 348 38 46 63 59 55 59 57 54 50 52 64 55 53 39 43 44 42 48
287 282 295 316 323 332 347 353 5 8 7 15 24 358 330 328 9 57 52 31 27 29 28 30 28 26 60 52 43 46 48 51 48
296 276 277 309 322 323 338 346 356 1 2 15 10 13 298 344 332 333 356 359 356 357 327 319 339 218 176 132 101 62 60 52 32
315 275 264 299 318 316 315 319 331 341 338 338 344 353 1 29 89 297 326 343 352 360 354 323 292 202 149 135 113 97 56 32 23
Height
814 813 812 811 810 808 807 806 804 803 802 801 800 799 798 798 798 798 798 798 798 798 798 798 797 798 798 799 799 800 802 803 803
814 813 812 811 810 808 807 805 804 802 800 799 798 797 797 796 795 794 795 795 795 795 796 796 797 797 797 797 798 799 800 802 803
814 813 812 811 810 808 807 806 804 802 800 798 797 795 794 793 793 792 791 791 792 792 793 793 793 794 794 795 796 797 799 800 801
814 812 811 810 809 808 806 805 804 801 799 796 795 794 792 790 789 788 788 788 788 788 789 789 790 791 792 792 793 794 796 798 799
813 812 810 809 807 805 804 803 802 800 797 795 793 792 790 788 787 785 785 785 785 784 784 785 786 787 789 790 790 792 793 795 797
812 812 810 808 806 804 802 801 800 798 796 794 791 790 788 787 785 783 782 782 782 781 781 780 780 781 782 785 786 788 790 792 793
812 810 810 808 805 803 801 799 797 795 793 790 788 787 786 785 783 781 780 780 779 778 777 775 775 773 774 775 779 783 785 787 789
810 809 808 806 804 802 799 797 795 792 790 788 786 785 784 782 781 779 778 778 777 776 774 771 770 769 755 768 769 776 782 783 785
810 809 807 805 803 801 798 796 793 791 788 786 784 783 781 780 777 777 776 775 776 775 771 769 767 762 755 733 750 776 779 780 781
809 808 806 805 802 800 797 795 792 789 786 784 782 780 779 776 776 774 773 773 774 773 771 770 768 769 766 756 765 768 773 776 776
808 807 805 803 801 800 797 794 790 788 784 781 780 779 776 774 774 772 771 772 771 770 770 769 769 772 772 766 769 771 767 763 771
807 805 803 801 800 799 796 793 790 786 782 779 778 776 774 772 773 772 771 770 769 769 768 769 766 762 771 769 772 771 772 764 772
805 804 802 800 799 797 795 792 788 784 780 776 774 773 771 770 771 772 773 771 769 769 768 767 770 771 774 767 767 772 774 774 773
803 801 800 799 798 796 793 791 788 784 779 775 773 770 769 769 770 771 772 771 769 769 768 767 768 767 767 769 769 772 775 774 775
801 800 799 798 796 795 793 790 788 784 781 775 773 771 770 770 770 772 772 772 770 769 768 768 769 769 770 773 768 774 773 774 774
799 799 798 797 795 794 792 789 787 783 781 777 774 772 771 771 772 773 774 773 772 772 772 770 770 771 770 769 766 774 770 773 772
798 797 796 796 794 793 792 790 787 785 785 784 782 779 774 772 772 773 774 774 774 772 772 771 771 772 771 771 773 770 772 773 770
796 795 795 794 793 792 791 790 788 787 786 786 786 784 784 778 774 773 774 775 775 775 775 774 773 772 771 772 773 772 774 772 772
794 794 794 793 792 791 790 789 788 787 787 786 786 785 786 785 781 774 774 775 775 775 774 774 775 774 774 774 774 774 774 773 773
793 793 793 793 791 790 790 789 788 786 786 786 786 785 784 784 784 782 776 772 773 773 772 771 771 773 773 772 773 774 773 774 774